{"data":{"norad_id":53743,"epoch":"2026-05-24T19:25:29.040960Z","epoch_age_seconds":87424,"freshness":"FRESH","line1":"1 53743U 22107AV  26144.80936390  .00000244  00000+0  33450-4 0  9997","line2":"2 53743  53.2136 282.4952 0001428  66.0491 294.0650 15.08831760206088","mean_motion":15.0883176,"eccentricity":0.0001428,"inclination_deg":53.2136,"raan_deg":282.4952,"arg_perigee_deg":66.0491,"mean_anomaly_deg":294.065,"bstar":3.345e-5,"rev_number":20608,"period_min":95.438075879315,"perigee_km":538.78069854609,"apogee_km":540.75645237844,"semimajor_km":6917.9055754623,"source":"CELESTRAK","updated_at":"2026-05-25T13:38:17.539593Z"}}